DLH161 EDXW-EDDF

Flight info

Callsign DLH161
Flight time 1h 3m
Altitude 7000
Route OLDIP1A OLDIP DCT BADOS/N0450F370 DCT OMWEG Y348 ELSOB N850 NIE DCT RIMET/N0412F310 T157 KOKEB/N0364F230 T157 KERAX KERAX5D
Aircraft A319/M-SDE2E3FGIJ1LORWXYZ/HB1

Departure

Time 2026-04-15 10:16
Airport Westerland Sylt Airport (EDXW)

Arrival

Time 2026-04-15 11:20
Airport Frankfurt Main Airport (EDDF)
Time Latitude Longitude Altitude Speed Heading
2026-04-15 09:54 54.91352 8.33124 31 ft 0 kts 91°
2026-04-15 10:09 54.91352 8.33159 31 ft 4 kts 91°
2026-04-15 10:09 54.91352 8.33204 32 ft 3 kts 89°
2026-04-15 10:10 54.91352 8.33233 30 ft 0 kts 269°
2026-04-15 10:11 54.91354 8.33229 31 ft 1 kts 295°
2026-04-15 10:11 54.91393 8.33212 31 ft 13 kts 344°
2026-04-15 10:12 54.91498 8.33179 34 ft 15 kts 359°
2026-04-15 10:12 54.91594 8.33179 37 ft 12 kts
2026-04-15 10:12 54.91676 8.33177 39 ft 11 kts 359°
2026-04-15 10:12 54.91748 8.33176 39 ft 10 kts
2026-04-15 10:13 54.91809 8.33191 42 ft 8 kts 18°
2026-04-15 10:13 54.91813 8.33193 39 ft 0 kts 19°
2026-04-15 10:15 54.91829 8.33203 40 ft 6 kts 19°
2026-04-15 10:15 54.91890 8.33299 42 ft 15 kts 85°
2026-04-15 10:15 54.91814 8.33439 43 ft 23 kts 144°
2026-04-15 10:16 54.91453 8.33888 42 ft 103 kts 144°
2026-04-15 10:16 54.90724 8.34786 264 ft 138 kts 146°
2026-04-15 10:16 54.89935 8.35759 917 ft 139 kts 146°
2026-04-15 10:16 54.89132 8.36754 1501 ft 149 kts 148°
2026-04-15 10:17 54.88222 8.37879 1930 ft 172 kts 148°
2026-04-15 10:17 54.87178 8.39159 2328 ft 196 kts 148°
2026-04-15 10:17 54.85988 8.40618 2779 ft 222 kts 147°
2026-04-15 10:17 54.84657 8.42253 3350 ft 246 kts 147°
2026-04-15 10:18 54.83225 8.44024 4219 ft 257 kts 147°
2026-04-15 10:18 54.81758 8.45837 5266 ft 262 kts 147°
2026-04-15 10:18 54.80255 8.47692 6235 ft 269 kts 147°
2026-04-15 10:18 54.78708 8.49603 7147 ft 277 kts 147°
2026-04-15 10:19 54.77120 8.51559 8037 ft 283 kts 147°
2026-04-15 10:19 54.75496 8.53555 8959 ft 289 kts 147°
2026-04-15 10:19 54.73840 8.55592 9868 ft 296 kts 147°
2026-04-15 10:19 54.72147 8.57672 10726 ft 301 kts 147°
2026-04-15 10:20 54.70424 8.59789 11557 ft 306 kts 147°
2026-04-15 10:20 54.68669 8.61936 12437 ft 310 kts 148°
2026-04-15 10:20 54.66893 8.64100 13292 ft 315 kts 148°
2026-04-15 10:20 54.65092 8.66292 14090 ft 321 kts 148°
2026-04-15 10:21 54.63251 8.68527 14794 ft 326 kts 148°
2026-04-15 10:21 54.61431 8.70926 15486 ft 334 kts 140°
2026-04-15 10:21 54.59723 8.73848 15724 ft 358 kts 136°
2026-04-15 10:21 54.57939 8.76979 16128 ft 372 kts 136°
2026-04-15 10:22 54.56116 8.80195 16757 ft 378 kts 136°
2026-04-15 10:22 54.54267 8.83458 17428 ft 383 kts 136°
2026-04-15 10:22 54.52391 8.86764 18097 ft 388 kts 136°
2026-04-15 10:22 54.50487 8.90107 18724 ft 393 kts 136°
2026-04-15 10:23 54.48557 8.93483 19317 ft 398 kts 136°
2026-04-15 10:23 54.46604 8.96888 19914 ft 402 kts 136°
2026-04-15 10:23 54.44631 9.00320 20514 ft 405 kts 136°
2026-04-15 10:23 54.42640 9.03768 21116 ft 409 kts 136°
2026-04-15 10:24 54.40624 9.07253 21690 ft 413 kts 136°
2026-04-15 10:24 54.38596 9.10755 22360 ft 415 kts 136°
2026-04-15 10:24 54.36427 9.13954 22881 ft 418 kts 146°
2026-04-15 10:24 54.33950 9.16593 23441 ft 421 kts 152°
2026-04-15 10:25 54.31407 9.19110 23969 ft 425 kts 152°
2026-04-15 10:25 54.28837 9.21660 24433 ft 429 kts 152°
2026-04-15 10:25 54.26245 9.24235 24893 ft 432 kts 152°
2026-04-15 10:25 54.23627 9.26836 25349 ft 436 kts 152°
2026-04-15 10:26 54.20999 9.29448 25798 ft 440 kts 152°
2026-04-15 10:26 54.18345 9.32088 26234 ft 443 kts 152°
2026-04-15 10:26 54.15669 9.34745 26666 ft 447 kts 152°
2026-04-15 10:26 54.12971 9.37414 27070 ft 450 kts 152°
2026-04-15 10:27 54.10258 9.40094 27548 ft 452 kts 152°
2026-04-15 10:27 54.07529 9.42782 27990 ft 455 kts 152°
2026-04-15 10:27 54.04780 9.45483 28412 ft 458 kts 152°
2026-04-15 10:27 54.01955 9.48005 28818 ft 459 kts 159°
2026-04-15 10:28 53.99983 9.49284 29083 ft 459 kts 165°
2026-04-15 10:28 53.96882 9.50573 29502 ft 459 kts 175°
2026-04-15 10:28 53.93706 9.51325 29841 ft 463 kts 176°
2026-04-15 10:28 53.90502 9.52062 30220 ft 466 kts 176°
2026-04-15 10:29 53.87274 9.52807 30548 ft 470 kts 176°
2026-04-15 10:29 53.84024 9.53565 30857 ft 473 kts 175°
2026-04-15 10:29 53.80757 9.54333 31171 ft 476 kts 175°
2026-04-15 10:29 53.77468 9.55106 31487 ft 479 kts 176°
2026-04-15 10:30 53.74159 9.55881 31791 ft 482 kts 176°
2026-04-15 10:30 53.70833 9.56656 32155 ft 483 kts 176°
2026-04-15 10:30 53.67503 9.57427 32566 ft 483 kts 177°
2026-04-15 10:30 53.64176 9.57770 32954 ft 478 kts 186°
2026-04-15 10:31 53.60868 9.57446 33324 ft 476 kts 189°
2026-04-15 10:31 53.57558 9.57045 33748 ft 476 kts 189°
2026-04-15 10:31 53.54262 9.56655 34175 ft 476 kts 189°
2026-04-15 10:31 53.50962 9.56229 34544 ft 475 kts 191°
2026-04-15 10:32 53.47682 9.55646 34915 ft 473 kts 192°
2026-04-15 10:32 53.44423 9.54938 35284 ft 471 kts 193°
2026-04-15 10:32 53.41178 9.54164 35630 ft 470 kts 194°
2026-04-15 10:32 53.37942 9.53374 35984 ft 469 kts 194°
2026-04-15 10:33 53.34716 9.52606 36305 ft 469 kts 193°
2026-04-15 10:33 53.31480 9.51868 36628 ft 469 kts 193°
2026-04-15 10:33 53.28235 9.51159 36946 ft 469 kts 192°
2026-04-15 10:33 53.24997 9.50469 37201 ft 469 kts 192°
2026-04-15 10:34 53.21766 9.49793 37254 ft 466 kts 192°
2026-04-15 10:34 53.15359 9.48465 37252 ft 463 kts 192°
2026-04-15 10:35 53.08968 9.47114 37253 ft 463 kts 192°
2026-04-15 10:35 53.02582 9.45740 37255 ft 463 kts 192°
2026-04-15 10:36 52.96239 9.44381 37253 ft 463 kts 192°
2026-04-15 10:36 52.89855 9.42999 37254 ft 463 kts 193°
2026-04-15 10:37 52.83468 9.41620 37232 ft 463 kts 192°
2026-04-15 10:37 52.77079 9.40279 37238 ft 463 kts 192°
2026-04-15 10:38 52.70677 9.38947 37243 ft 464 kts 192°
2026-04-15 10:38 52.64228 9.38124 37246 ft 470 kts 180°
2026-04-15 10:38 52.60976 9.38837 37231 ft 474 kts 169°
2026-04-15 10:39 52.57815 9.40432 37231 ft 477 kts 159°
2026-04-15 10:39 52.51679 9.44605 37237 ft 477 kts 159°
2026-04-15 10:40 52.45533 9.48727 37241 ft 478 kts 159°
2026-04-15 10:40 52.39371 9.52838 37241 ft 478 kts 159°
2026-04-15 10:41 52.33212 9.56950 37255 ft 478 kts 159°
2026-04-15 10:41 52.27053 9.61055 37266 ft 478 kts 159°
2026-04-15 10:42 52.20894 9.65146 37271 ft 478 kts 159°
2026-04-15 10:42 52.14734 9.69224 37272 ft 478 kts 159°
2026-04-15 10:43 52.08575 9.73284 37262 ft 477 kts 159°
2026-04-15 10:43 52.02419 9.77329 37278 ft 477 kts 159°
2026-04-15 10:44 51.96267 9.81368 37297 ft 477 kts 159°
2026-04-15 10:44 51.90120 9.85399 37274 ft 477 kts 159°
2026-04-15 10:45 51.83955 9.89413 37256 ft 478 kts 159°
2026-04-15 10:45 51.77787 9.93417 37259 ft 478 kts 159°
2026-04-15 10:46 51.71615 9.97415 37262 ft 478 kts 159°
2026-04-15 10:46 51.65440 10.01412 37261 ft 478 kts 159°
2026-04-15 10:47 51.59255 10.05399 37230 ft 480 kts 159°
2026-04-15 10:47 51.53040 10.09396 36772 ft 484 kts 159°
2026-04-15 10:47 51.49864 10.11435 35496 ft 499 kts 159°
2026-04-15 10:48 51.46626 10.13508 34759 ft 501 kts 159°
2026-04-15 10:48 51.43391 10.15575 34114 ft 500 kts 159°
2026-04-15 10:48 51.40215 10.17596 33505 ft 496 kts 159°
2026-04-15 10:48 51.37026 10.19621 32970 ft 490 kts 159°
2026-04-15 10:49 51.33790 10.21204 32437 ft 483 kts 169°
2026-04-15 10:49 51.30487 10.21856 31939 ft 475 kts 180°
2026-04-15 10:49 51.27208 10.21823 31430 ft 468 kts 183°
2026-04-15 10:49 51.23969 10.21751 30936 ft 464 kts 183°
2026-04-15 10:50 51.20761 10.21680 30454 ft 459 kts 183°
2026-04-15 10:50 51.17587 10.21611 29922 ft 454 kts 182°
2026-04-15 10:50 51.14450 10.21548 29390 ft 448 kts 182°
2026-04-15 10:50 51.11350 10.21493 28855 ft 443 kts 182°
2026-04-15 10:51 51.08292 10.21446 28336 ft 438 kts 182°
2026-04-15 10:51 51.05264 10.21400 27843 ft 432 kts 182°
2026-04-15 10:51 51.02273 10.21353 27357 ft 427 kts 182°
2026-04-15 10:51 50.99316 10.21302 26884 ft 423 kts 182°
2026-04-15 10:52 50.96392 10.21250 26426 ft 418 kts 182°
2026-04-15 10:52 50.93502 10.21195 25985 ft 413 kts 182°
2026-04-15 10:52 50.90605 10.21141 25558 ft 409 kts 182°
2026-04-15 10:52 50.87816 10.21089 25153 ft 404 kts 182°
2026-04-15 10:53 50.85026 10.21002 24777 ft 398 kts 186°
2026-04-15 10:53 50.82354 10.20110 24394 ft 389 kts 202°
2026-04-15 10:53 50.79995 10.18120 23995 ft 382 kts 218°
2026-04-15 10:53 50.78115 10.15228 23525 ft 375 kts 234°
2026-04-15 10:54 50.76798 10.11722 23015 ft 371 kts 245°
2026-04-15 10:54 50.75652 10.08090 22507 ft 368 kts 244°
2026-04-15 10:54 50.74506 10.04488 22024 ft 366 kts 244°
2026-04-15 10:54 50.73365 10.00915 21541 ft 363 kts 244°
2026-04-15 10:55 50.72228 9.97372 21073 ft 360 kts 244°
2026-04-15 10:55 50.71096 9.93857 20589 ft 358 kts 244°
2026-04-15 10:55 50.69972 9.90368 20134 ft 356 kts 244°
2026-04-15 10:55 50.68856 9.86903 19681 ft 353 kts 244°
2026-04-15 10:56 50.67748 9.83461 19232 ft 351 kts 244°
2026-04-15 10:56 50.66645 9.80045 18805 ft 348 kts 243°
2026-04-15 10:56 50.65546 9.76654 18352 ft 346 kts 243°
2026-04-15 10:56 50.64456 9.73295 17872 ft 344 kts 243°
2026-04-15 10:57 50.63265 9.70053 17418 ft 341 kts 233°
2026-04-15 10:57 50.59565 9.65559 16564 ft 339 kts 204°
2026-04-15 10:57 50.57372 9.64214 16131 ft 337 kts 202°
2026-04-15 10:58 50.55194 9.62892 15708 ft 335 kts 202°
2026-04-15 10:58 50.53028 9.61578 15300 ft 332 kts 202°
2026-04-15 10:58 50.50881 9.60266 14912 ft 330 kts 204°
2026-04-15 10:58 50.48919 9.58476 14519 ft 325 kts 221°
2026-04-15 10:59 50.47414 9.55884 14117 ft 321 kts 237°
2026-04-15 10:59 50.46472 9.52744 13669 ft 318 kts 253°
2026-04-15 10:59 50.45851 9.49425 13286 ft 314 kts 254°
2026-04-15 10:59 50.45242 9.46184 13081 ft 306 kts 253°
2026-04-15 11:00 50.44645 9.43014 12814 ft 300 kts 253°
2026-04-15 11:00 50.44056 9.39910 12551 ft 295 kts 253°
2026-04-15 11:00 50.43470 9.36850 12300 ft 292 kts 253°
2026-04-15 11:00 50.42887 9.33810 12045 ft 290 kts 253°
2026-04-15 11:01 50.42306 9.30777 11798 ft 290 kts 253°
2026-04-15 11:01 50.41672 9.27789 11549 ft 289 kts 245°
2026-04-15 11:01 50.40626 9.25115 11321 ft 288 kts 230°
2026-04-15 11:01 50.39169 9.22979 11227 ft 287 kts 215°
2026-04-15 11:02 50.37471 9.21315 11240 ft 288 kts 212°
2026-04-15 11:02 50.35762 9.19668 11242 ft 288 kts 212°
2026-04-15 11:02 50.34057 9.18018 11237 ft 288 kts 212°
2026-04-15 11:02 50.32351 9.16363 11239 ft 288 kts 212°
2026-04-15 11:03 50.30644 9.14710 11248 ft 288 kts 212°
2026-04-15 11:03 50.28946 9.13035 11239 ft 288 kts 216°
2026-04-15 11:03 50.27487 9.10896 11238 ft 288 kts 231°
2026-04-15 11:03 50.26432 9.08242 11204 ft 290 kts 245°
2026-04-15 11:04 50.25715 9.05304 10957 ft 288 kts 250°
2026-04-15 11:04 50.25033 9.02367 10712 ft 287 kts 249°
2026-04-15 11:04 50.24354 8.99438 10470 ft 286 kts 249°
2026-04-15 11:04 50.23676 8.96521 10233 ft 286 kts 249°
2026-04-15 11:05 50.22995 8.93609 9973 ft 285 kts 249°
2026-04-15 11:05 50.22314 8.90707 9704 ft 284 kts 249°
2026-04-15 11:05 50.21635 8.87815 9446 ft 283 kts 249°
2026-04-15 11:05 50.20960 8.84946 9186 ft 281 kts 249°
2026-04-15 11:06 50.20286 8.82082 8923 ft 279 kts 249°
2026-04-15 11:06 50.19616 8.79251 8662 ft 278 kts 249°
2026-04-15 11:06 50.18946 8.76425 8410 ft 277 kts 249°
2026-04-15 11:06 50.18278 8.73611 8155 ft 276 kts 249°
2026-04-15 11:07 50.17613 8.70808 7896 ft 275 kts 249°
2026-04-15 11:07 50.16952 8.68021 7640 ft 273 kts 249°
2026-04-15 11:07 50.16293 8.65248 7401 ft 272 kts 249°
2026-04-15 11:07 50.15638 8.62489 7254 ft 271 kts 249°
2026-04-15 11:08 50.14985 8.59736 7245 ft 271 kts 249°
2026-04-15 11:08 50.14331 8.56986 7231 ft 271 kts 249°
2026-04-15 11:08 50.13672 8.54223 6982 ft 270 kts 249°
2026-04-15 11:08 50.13018 8.51490 6742 ft 269 kts 248°
2026-04-15 11:09 50.12366 8.48768 6484 ft 267 kts 248°
2026-04-15 11:09 50.11717 8.46055 6221 ft 267 kts 248°
2026-04-15 11:09 50.11065 8.43347 5986 ft 268 kts 248°
2026-04-15 11:09 50.10408 8.40624 5726 ft 269 kts 248°
2026-04-15 11:10 50.09750 8.37897 5464 ft 269 kts 248°
2026-04-15 11:10 50.09091 8.35175 5217 ft 269 kts 248°
2026-04-15 11:10 50.08429 8.32445 5041 ft 269 kts 248°
2026-04-15 11:10 50.07770 8.29718 5034 ft 268 kts 248°
2026-04-15 11:11 50.07135 8.27099 5037 ft 251 kts 248°
2026-04-15 11:11 50.06536 8.24631 5039 ft 240 kts 248°
2026-04-15 11:11 50.05949 8.22215 5014 ft 238 kts 248°
2026-04-15 11:11 50.05361 8.19808 5019 ft 238 kts 248°
2026-04-15 11:12 50.04774 8.17409 5028 ft 237 kts 248°
2026-04-15 11:12 50.04385 8.15824 5033 ft 238 kts 248°
2026-04-15 11:12 50.03798 8.13418 5023 ft 237 kts 248°
2026-04-15 11:12 50.03191 8.11030 5011 ft 237 kts 242°
2026-04-15 11:13 50.02172 8.09065 5011 ft 233 kts 215°
2026-04-15 11:13 50.00720 8.08037 5017 ft 230 kts 189°
2026-04-15 11:13 49.99139 8.08073 5015 ft 225 kts 168°
2026-04-15 11:13 49.97740 8.08920 5012 ft 208 kts 148°
2026-04-15 11:14 49.96670 8.10321 5010 ft 198 kts 130°
2026-04-15 11:14 49.95944 8.12120 5025 ft 197 kts 114°
2026-04-15 11:14 49.95601 8.14165 5019 ft 197 kts 96°
2026-04-15 11:14 49.95677 8.16294 5011 ft 199 kts 79°
2026-04-15 11:15 49.96120 8.18335 4893 ft 200 kts 70°
2026-04-15 11:15 49.96613 8.20348 4578 ft 198 kts 71°
2026-04-15 11:15 49.97099 8.22340 4294 ft 197 kts 70°
2026-04-15 11:15 49.97579 8.24317 4008 ft 195 kts 70°
2026-04-15 11:16 49.98057 8.26287 3750 ft 195 kts 70°
2026-04-15 11:16 49.98533 8.28250 3456 ft 192 kts 70°
2026-04-15 11:16 49.98999 8.30176 3172 ft 190 kts 70°
2026-04-15 11:16 49.99460 8.32084 2905 ft 189 kts 70°
2026-04-15 11:17 49.99921 8.33989 2626 ft 185 kts 70°
2026-04-15 11:17 50.00368 8.35837 2366 ft 182 kts 70°
2026-04-15 11:17 50.00808 8.37662 2101 ft 179 kts 70°
2026-04-15 11:17 50.01238 8.39446 1835 ft 172 kts 70°
2026-04-15 11:18 50.01635 8.41094 1611 ft 154 kts 69°
2026-04-15 11:18 50.01991 8.42570 1385 ft 138 kts 70°
2026-04-15 11:18 50.02314 8.43916 1180 ft 130 kts 70°
2026-04-15 11:18 50.02627 8.45216 998 ft 127 kts 70°
2026-04-15 11:19 50.02940 8.46501 813 ft 127 kts 69°
2026-04-15 11:19 50.03250 8.47786 641 ft 128 kts 70°
2026-04-15 11:19 50.03563 8.49086 458 ft 128 kts 71°
2026-04-15 11:19 50.03866 8.50370 324 ft 119 kts 72°
2026-04-15 11:20 50.04104 8.51391 329 ft 70 kts 70°
2026-04-15 11:20 50.04219 8.51877 336 ft 25 kts 73°
2026-04-15 11:20 50.04237 8.52132 340 ft 23 kts 96°
2026-04-15 11:20 50.04214 8.52365 344 ft 21 kts 99°
2026-04-15 11:21 50.04199 8.52578 348 ft 19 kts 87°
2026-04-15 11:21 50.04225 8.52767 351 ft 18 kts 68°
2026-04-15 11:21 50.04266 8.52946 354 ft 17 kts 70°
2026-04-15 11:21 50.04306 8.53121 359 ft 16 kts 70°
2026-04-15 11:22 50.04341 8.53265 364 ft 12 kts 69°
2026-04-15 11:22 50.04365 8.53366 370 ft 9 kts 69°
2026-04-15 11:22 50.04395 8.53505 375 ft 16 kts 80°
2026-04-15 11:22 50.04408 8.53701 375 ft 20 kts 84°
2026-04-15 11:23 50.04424 8.53918 375 ft 21 kts 83°
2026-04-15 11:23 50.04440 8.54145 375 ft 22 kts 84°
2026-04-15 11:23 50.04454 8.54385 372 ft 24 kts 85°
2026-04-15 11:23 50.04410 8.54644 366 ft 23 kts 127°
2026-04-15 11:24 50.04268 8.54798 357 ft 28 kts 159°
2026-04-15 11:24 50.04099 8.54893 350 ft 15 kts 159°
2026-04-15 11:24 50.04081 8.54903 351 ft 0 kts 159°
2026-04-15 11:25 50.04080 8.54904 351 ft 1 kts 159°
2026-04-15 11:25 50.04033 8.54936 355 ft 11 kts 144°
2026-04-15 11:26 50.04025 8.55045 358 ft 11 kts 73°
2026-04-15 11:26 50.04054 8.55166 358 ft 13 kts 66°
2026-04-15 11:26 50.04093 8.55314 352 ft 16 kts 69°
2026-04-15 11:26 50.04132 8.55487 354 ft 18 kts 72°
2026-04-15 11:27 50.04173 8.55673 357 ft 18 kts 69°
2026-04-15 11:27 50.04222 8.55859 353 ft 19 kts 66°
2026-04-15 11:27 50.04270 8.56048 358 ft 20 kts 71°
2026-04-15 11:27 50.04318 8.56265 359 ft 22 kts 71°
2026-04-15 11:28 50.04371 8.56486 361 ft 22 kts 69°
2026-04-15 11:28 50.04425 8.56707 359 ft 22 kts 69°
2026-04-15 11:28 50.04480 8.56926 360 ft 22 kts 70°
2026-04-15 11:28 50.04535 8.57164 360 ft 24 kts 70°
2026-04-15 11:29 50.04593 8.57409 361 ft 24 kts 69°
2026-04-15 11:29 50.04652 8.57658 360 ft 25 kts 70°
2026-04-15 11:29 50.04724 8.57901 358 ft 25 kts 51°
2026-04-15 11:29 50.04802 8.58141 363 ft 25 kts 69°
2026-04-15 11:30 50.04861 8.58390 363 ft 25 kts 69°
2026-04-15 11:30 50.04924 8.58644 363 ft 25 kts 69°
2026-04-15 11:30 50.04984 8.58904 360 ft 26 kts 70°
2026-04-15 11:30 50.05047 8.59168 366 ft 25 kts 69°
2026-04-15 11:31 50.04984 8.59305 367 ft 17 kts 159°
2026-04-15 11:31 50.04878 8.59343 368 ft 14 kts 202°
2026-04-15 11:31 50.04833 8.59210 372 ft 15 kts 251°
2026-04-15 11:31 50.04796 8.59058 371 ft 15 kts 249°
2026-04-15 11:32 50.04818 8.59004 367 ft 7 kts 347°
2026-04-15 11:32 50.04866 8.58978 367 ft 2 kts 340°
2026-04-15 11:32 50.04871 8.58975 366 ft 0 kts 339°